Location: Coleto Creek Park and Reservoir
(28.7196°N, 97.1740°W)
Time: 00:03:42
(UTC-05:00)

Hubble Space Telescope - Visible Passes

Search period start: 24 May 2015 00:00
Search period end: 03 June 2015 00:00
Orbit: 542 x 546 km, 28.5° (Epoch: 22 May)

Date Brightness Start Highest point End Pass type
(mag) Time Alt. Az. Time Alt. Az. Time Alt. Az.
29 May 3.1 05:16:50 10° S 05:18:23 12° SSE 05:20:03 10° SE visible
30 May 2.8 05:08:25 14° S 05:09:37 16° SSE 05:12:13 10° ESE visible
31 May 2.4 05:00:05 20° S 05:00:51 21° SSE 05:04:00 10° ESE visible
01 Jun 2.0 04:51:44 26° SSE 04:52:05 26° SSE 04:55:35 10° E visible
02 Jun 1.7 04:43:20 33° SSE 04:43:20 33° SSE 04:47:04 10° E visible
